Location: ??
(35.5090°N, 139.6783°E)
Time: 02:40:49
(UTC+00:00)

CZ-4C R/B - Pass Details

Date: 08 November 2025
Orbit: 487 x 1492 km, 63.4° (Epoch: 09 December)

Event Time Altitude Azimuth Distance (km) Brightness Sun altitude
Rises 08:31:18 0° 236° (SW) 2,629 6.3 -10.8°
Reaches altitude 10° 08:33:29 10° 248° (WSW) 1,815 5.5 -11.3°
Maximum altitude 08:37:05 31° 312° (NW) 1,084 3.2 -12.0°
Drops below altitude 10° 08:41:25 10° 14° (NNE) 2,206 4.1 -12.9°
Enters shadow 08:44:04 - 24° (NNE) 3,198 4.9 -13.4°
